{"data":{"norad_id":59926,"intl_designator":"2024-106E","name":"STARLINK-31957","alt_names":[],"object_type":"PAYLOAD","status":"ACTIVE","operator":null,"country":"US","launch_date":"2024-06-01","launch_site_code":"AFETR","launch_vehicle":null,"mission":null,"orbit_class":"UNKNOWN","rcs_meters":null,"size_class":null,"mass_kg":null,"dimensions":null,"purposes":["comms"],"wikipedia_slug":null,"has_3d_model":false,"image_url":null,"decayed_at":null,"tle_current":{"epoch":"2026-05-25T00:54:58.256064Z","epoch_age_seconds":82314,"freshness":"FRESH","line1":"1 59926U 24106E   26145.03817426 -.00001394  00000+0 -41184-4 0  9993","line2":"2 59926  42.9997 260.9820 0001178 288.5460  71.5264 15.27562672112259","mean_motion":15.27562672,"eccentricity":0.0001178,"inclination_deg":42.9997,"raan_deg":260.982,"arg_perigee_deg":288.546,"mean_anomaly_deg":71.5264,"bstar":-4.1184e-5,"rev_number":11225,"period_min":94.267818034244,"perigee_km":482.29272896147,"apogee_km":483.90923663022,"semimajor_km":6861.2379827958,"source":"CELESTRAK","updated_at":"2026-05-25T13:38:19.122391Z"}}}